Kalamazoo, MI

11:31 PM EDT on October 20, 2019 (GMT -0400)
Kalamazoo-Battle Creek International

Weather History for KAZO - September, 2019

Change the Weather History Date:

Tuesday, September 17, 2019

  Actual Average Record
Temperature  
Mean Temperature 67 °F 62 °F  
Max Temperature 76 °F 73 °F 93 °F (1955)
Min Temperature 58 °F 52 °F 33 °F (1959)
Degree Days  
Heating Degree Days 0 4  
Month to date heating degree days 8 40  
Since 1 July heating degree days 11 56  
Cooling Degree Days 2 1  
Month to date cooling degree days 85 45  
Year to date cooling degree days 801 656  
Growing Degree Days 16 (Base 50)    
Moisture  
Dew Point 59 °F    
Average Humidity 74    
Maximum Humidity 93    
Minimum Humidity 54    
Precipitation  
Precipitation 0.00 in 0.12 in 1.10 in (1973)
Month to date precipitation 1.25 2.25  
Year to date precipitation 26.30 25.84  
Sea Level Pressure  
Sea Level Pressure 30.18 in    
Wind  
Wind Speed 3 mph (NE)    
Max Wind Speed 8 mph    
Max Gust Speed 14 mph    
Visibility 4 miles    
Events Fog    
T = Trace of Precipitation, MM = Missing Value Source: NWS Daily Summary

Daily Weather History Graph

Daily Weather History Graph

Search for Another Location

Airport or City:

Astronomy

Sep. 17, 2019 Rise Set
Actual Time 7:24 AM EDT 7:48 PM EDT
Civil Twilight 6:55 AM EDT 8:16 PM EDT
Nautical Twilight 6:22 AM EDT 8:49 PM EDT
Astronomical Twilight 5:48 AM EDT 9:23 PM EDT
Moon 9:48 PM EDT (9/17) 10:30 AM EDT (9/17)
Length of Visible Light 13h 20m
Length of Day
12h 24m
Waning Gibbous, 89% of the Moon is Illuminated
Sep 17
Waning Gibbous
Sep 21
Last Quarter
Sep 28
New
Oct 5
First Quarter
Oct 13
Full

Hourly Weather History & Observations

Time (EDT) Temp. Dew Point Humidity Pressure Visibility Wind Dir Wind Speed Gust Speed Precip Events Conditions
12:53 AM 63.0 °F 60.1 °F 90% 30.14 in 7.0 mi Calm Calm - N/A   Clear
1:26 AM 62.1 °F 59.0 °F 90% 30.15 in 1.2 mi Calm Calm - N/A   Clear
1:35 AM 62.1 °F 59.0 °F 90% 30.15 in 0.8 mi Calm Calm - N/A   Clear
1:43 AM 62.1 °F 57.9 °F 86% 30.15 in 1.2 mi Calm Calm - N/A   Clear
1:47 AM 62.6 °F 59.0 °F 88% 30.15 in 3.0 mi North 3.5 mph - N/A   Clear
1:51 AM 62.6 °F 59.0 °F 88% 30.15 in 1.8 mi North 3.5 mph - N/A   Clear
1:53 AM 62.1 °F 59.0 °F 90% 30.15 in 1.5 mi Calm Calm - N/A   Clear
2:06 AM 61.0 °F 57.9 °F 90% 30.16 in 3.0 mi Calm Calm - N/A   Clear
2:09 AM 61.0 °F 57.9 °F 90% 30.16 in 1.8 mi Calm Calm - N/A   Clear
2:14 AM 60.1 °F 57.0 °F 90% 30.16 in 0.5 mi Calm Calm - N/A Fog Fog
2:20 AM 60.1 °F 57.0 °F 90% 30.16 in 0.2 mi Calm Calm - N/A Fog Fog
2:31 AM 61.0 °F 57.9 °F 90% 30.16 in 0.8 mi Calm Calm - N/A   Clear
2:53 AM 61.0 °F 57.9 °F 90% 30.15 in 1.8 mi Calm Calm - N/A   Clear
2:55 AM 61.0 °F 57.9 °F 90% 30.16 in 3.0 mi Calm Calm - N/A   Clear
3:01 AM 61.0 °F 57.9 °F 90% 30.16 in 1.5 mi Calm Calm - N/A   Clear
3:10 AM 61.0 °F 57.9 °F 90% 30.16 in 0.5 mi Calm Calm - N/A Fog Fog
3:24 AM 60.1 °F 57.9 °F 93% 30.16 in 0.2 mi Calm Calm - N/A Fog Fog
3:44 AM 60.1 °F 57.0 °F 90% 30.16 in 0.5 mi North 3.5 mph - N/A Fog Fog
3:53 AM 61.0 °F 57.9 °F 90% 30.16 in 1.0 mi North 3.5 mph - N/A   Clear
4:30 AM 57.9 °F 55.9 °F 93% 30.17 in 0.5 mi North 3.5 mph - N/A Fog Fog
4:46 AM 57.9 °F 55.9 °F 93% 30.17 in 0.5 mi North 3.5 mph - N/A Fog Fog
4:53 AM 60.1 °F 57.0 °F 90% 30.16 in 0.8 mi Calm Calm - N/A   Mostly Cloudy
4:59 AM 61.0 °F 57.9 °F 90% 30.17 in 2.0 mi NE 3.5 mph - N/A   Mostly Cloudy
5:09 AM 62.1 °F 59.0 °F 90% 30.18 in 0.8 mi Variable 3.5 mph - N/A   Mist
5:40 AM 63.0 °F 60.1 °F 90% 30.19 in 0.2 mi Calm Calm - N/A Fog Fog
5:53 AM 63.0 °F 60.1 °F 90% 30.18 in 0.2 mi NE 3.5 mph - N/A Fog Fog
6:30 AM 63.0 °F 60.1 °F 90% 30.18 in 0.5 mi ENE 4.6 mph - N/A Fog Fog
6:53 AM 63.0 °F 60.1 °F 90% 30.18 in 0.8 mi East 3.5 mph - N/A   Mist
7:08 AM 63.0 °F 60.1 °F 90% 30.19 in 2.0 mi ENE 3.5 mph - N/A   Overcast
7:16 AM 62.1 °F 60.1 °F 93% 30.20 in 5.0 mi ENE 3.5 mph - N/A   Overcast
7:31 AM 63.0 °F 60.1 °F 90% 30.21 in 1.0 mi ENE 3.5 mph - N/A   Overcast
7:53 AM 63.0 °F 60.1 °F 90% 30.21 in 1.0 mi Calm Calm - N/A   Overcast
8:53 AM 63.0 °F 60.1 °F 90% 30.22 in 1.0 mi North - - N/A   Overcast
8:56 AM 63.0 °F 60.1 °F 90% 30.23 in 2.0 mi Variable 3.5 mph - N/A   Overcast
9:27 AM 63.0 °F 60.1 °F 90% 30.23 in 4.0 mi East 5.8 mph - N/A   Overcast
9:53 AM 63.0 °F 59.0 °F 87% 30.23 in 4.0 mi Variable 3.5 mph - N/A   Overcast
10:53 AM 64.9 °F 59.0 °F 81% 30.23 in 10.0 mi East 5.8 mph - N/A   Overcast
11:53 AM 66.0 °F 59.0 °F 78% 30.22 in 9.0 mi Variable 3.5 mph - N/A   Mostly Cloudy
12:53 PM 68.0 °F 59.0 °F 73% 30.22 in 10.0 mi Calm Calm - N/A   Overcast
1:53 PM 71.1 °F 60.1 °F 68% 30.21 in 10.0 mi Variable 4.6 mph - N/A   Scattered Clouds
2:53 PM 73.0 °F 59.0 °F 61% 30.20 in 10.0 mi SE 4.6 mph - N/A   Scattered Clouds
3:53 PM 75.9 °F 59.0 °F 56% 30.17 in 10.0 mi Variable 5.8 mph - N/A   Clear
4:53 PM 75.0 °F 59.0 °F 57% 30.16 in 10.0 mi Variable 5.8 mph - N/A   Clear
5:53 PM 75.0 °F 57.9 °F 55% 30.16 in 10.0 mi Variable 5.8 mph - N/A   Clear
6:53 PM 73.0 °F 59.0 °F 61% 30.15 in 10.0 mi East 3.5 mph - N/A   Clear
7:53 PM 70.0 °F 59.0 °F 68% 30.16 in 10.0 mi ENE 3.5 mph - N/A   Clear
8:53 PM 64.9 °F 59.0 °F 81% 30.16 in 10.0 mi Calm Calm - N/A   Clear
9:53 PM 64.9 °F 59.0 °F 81% 30.16 in 10.0 mi Calm Calm - N/A   Clear
10:53 PM 63.0 °F 59.0 °F 87% 30.17 in 10.0 mi Calm Calm - N/A   Clear
11:53 PM 61.0 °F 57.9 °F 90% 30.18 in 8.0 mi Calm Calm - N/A   Clear